Regional Weather Roundup
Issued by NWS

Home | Current Version | Previous Version | Text Only | Print | Product List | Glossary On
Versions: 1 2 3 4 5 6 7 8 9 10 11 12 13 14 15 16 17 18 19 20 21 22 23 24 25 26 27 28 29 30 31 32 33 34 35 36 37 38 39 40 41 42 43 44 45 46 47 48 49 50
000
ASUS45 KBOI 281910
RWRID

IDAHO REGIONAL WEATHER ROUNDUP
NATIONAL WEATHER SERVICE BOISE ID
100 PM MDT THU MAY 28 2015

NOTE: "FAIR" INDICATES FEW OR NO CLOUDS BELOW 12000 FEET
WITH NO SIGNIFICANT WEATHER AND/OR OBSTRUCTIONS TO VISIBILITY

IDZ012-014-282000-
SOUTHWEST IDAHO


CITY           SKY/WX    TMP DP  RH WIND       PRES   REMARKS
BOISE          SUNNY     72  43  35 W10       30.09F
CALDWELL       SUNNY     72  45  37 N7        30.11S
MOUNTAIN HOME  SUNNY     73  37  27 NW12G18   30.09S
$$

IDZ016-017-282000-
SOUTHCENTRAL IDAHO


CITY           SKY/WX    TMP DP  RH WIND       PRES   REMARKS
BURLEY         MOSUNNY   65  46  50 W9        30.12S
JEROME         SUNNY     64  47  53 VRB7      30.13F
TWIN FALLS     SUNNY     69  42  37 W14G20    30.11F
$$

IDZ019>023-282000-
SOUTHEAST IDAHO


CITY           SKY/WX    TMP DP  RH WIND       PRES   REMARKS
IDAHO FALLS    PTSUNNY   58  43  57 CALM      30.14F
POCATELLO      MOSUNNY   62  46  55 W7        30.14S
REXBURG        LGT RAIN  54  45  71 SE5       30.14S
$$

IDZ006-010-011-018-031-032-282000-
CENTRAL IDAHO MOUNTAINS


CITY           SKY/WX    TMP DP  RH WIND       PRES   REMARKS
MCCALL         MOSUNNY   61  36  39 VRB5      30.15S
HAILEY         MOSUNNY   61  45  55 SE7       30.15F
STANLEY          N/A     56  37  49 N5        30.21F
SALMON         MOSUNNY   63  46  55 NW3       30.12F
CHALLIS        PTSUNNY   63  40  42 N8        30.15S
$$

IDZ002-004-006-007-026-282000-
NORTHERN IDAHO


CITY           SKY/WX    TMP DP  RH WIND       PRES   REMARKS
LEWISTON       SUNNY     74  50  42 NE8       30.08F
LOWELL           N/A     74  50  42 VRB5      30.09S
COEUR D`ALENE  SUNNY     73  48  40 W6        30.09S
MULLAN PASS    RAIN      49  46  90 NW5       30.21S FOG
$$


USA.gov is the U.S. government's official web portal to all federal, state and local government web resources and services.